User: anonymous   Login
Location: Unspecified
(0.0000°N, 0.0000°E)
Time: 07:25:49
(UTC+00:00)
Language:

XW-2D - Orbit

View from above orbital plane
View from above orbital plane
View from above satellite
View from above satellite

Ground track
Ground track

The orbit data is extracted from the following two-line orbital elements,

1 40907U 15049J   18023.91095891 +.00000653 +00000-0 +38306-4 0  9993
2 40907 097.4553 029.8015 0014915 161.8965 198.2801 15.15121256129657
Epoch (UTC): 23 January 2018 21:51:46
Eccentricity: 0.0014915
inclination: 97.4553°
perigee height: 510 km
apogee height: 531 km
right ascension of ascending node: 29.8015°
argument of perigee: 161.8965°
revolutions per day: 15.15121256
mean anomaly at epoch: 198.2801°
orbit number at epoch: 12965

The dashed part of the orbit path shows where the satellite is in the earth's shadow,  

DLR